Denison, IA

7:53 AM CST on February 26, 2017 (GMT -0600)
Denison Municipal

Weather History for KDNS - January, 2013

Change the Weather History Date:

Saturday, January 5, 2013

  Actual Average Record
Temperature  
Mean Temperature 22 °F -  
Max Temperature 28 °F 30 °F 64 °F (2012)
Min Temperature 15 °F 14 °F -13 °F (2014)
Degree Days  
Heating Degree Days 44    
Moisture  
Dew Point 17 °F    
Average Humidity 78    
Maximum Humidity 86    
Minimum Humidity 69    
Precipitation  
Precipitation 0.00 in - - ()
Sea Level Pressure  
Sea Level Pressure 30.03 in    
Wind  
Wind Speed 9 mph (WSW)    
Max Wind Speed 23 mph    
Max Gust Speed 31 mph    
Visibility 9 miles    
Events Snow    
Averages and records for this station are not official NWS values.
T = Trace of Precipitation, MM = Missing Value Source: NWS Daily Summary

Daily Weather History Graph

Daily Weather History Graph

Search for Another Location

Airport or City:

Trip Planner

Search our weather history database for the weather conditions in past years. The results will help you decide how hot, cold, wet, or windy it might be!

Date:

Astronomy

Jan. 05, 2013 Rise Set
Actual Time 7:49 AM CST 5:04 PM CST
Civil Twilight 7:18 AM CST 5:36 PM CST
Nautical Twilight 6:43 AM CST 6:11 PM CST
Astronomical Twilight 6:09 AM CST 6:44 PM CST
Moon 12:53 AM CST (1/5) 11:58 AM CST (1/5)
Length of Visible Light 10h 18m
Length of Day
9h 15m
Last Quarter, 44% of the Moon is Illuminated
Jan 5
Last Quarter
Jan 11
New
Jan 18
First Quarter
Jan 26
Full
Feb 3
Last Quarter

Hourly Weather History & Observations

Time (CST) Temp. Windchill Dew Point Humidity Pressure Visibility Wind Dir Wind Speed Gust Speed Precip Events Conditions
12:15 AM 21.2 °F 14.9 °F 14.0 °F 74% 30.11 in 10.0 mi South 4.6 mph - N/A   Clear
12:55 AM 19.4 °F 11.5 °F 14.0 °F 80% 30.09 in 10.0 mi South 5.8 mph - N/A   Clear
1:15 AM 19.4 °F 12.8 °F 12.2 °F 74% 30.09 in 10.0 mi South 4.6 mph - N/A   Clear
1:35 AM 19.4 °F 10.4 °F 12.2 °F 74% 30.09 in 10.0 mi South 6.9 mph - N/A   Clear
1:55 AM 19.4 °F 10.4 °F 12.2 °F 74% 30.08 in 10.0 mi SSW 6.9 mph - N/A   Clear
2:15 AM 19.4 °F 11.5 °F 14.0 °F 80% 30.09 in 10.0 mi SSW 5.8 mph - N/A   Clear
2:35 AM 19.4 °F 11.5 °F 14.0 °F 80% 30.08 in 10.0 mi South 5.8 mph - N/A   Clear
2:55 AM 19.4 °F 12.8 °F 14.0 °F 80% 30.08 in 10.0 mi South 4.6 mph - N/A   Clear
3:15 AM 19.4 °F 12.8 °F 14.0 °F 80% 30.08 in 10.0 mi SSW 4.6 mph - N/A   Clear
3:35 AM 17.6 °F 9.3 °F 12.2 °F 79% 30.07 in 10.0 mi SSW 5.8 mph - N/A   Clear
4:15 AM 19.4 °F 9.5 °F 14.0 °F 80% 30.06 in 10.0 mi South 8.1 mph - N/A   Clear
4:35 AM 19.4 °F 10.4 °F 15.8 °F 86% 30.05 in 10.0 mi South 6.9 mph - N/A   Clear
4:55 AM 19.4 °F 11.5 °F 15.8 °F 86% 30.03 in 10.0 mi South 5.8 mph - N/A   Clear
5:15 AM 19.4 °F 10.4 °F 15.8 °F 86% 30.04 in 10.0 mi SSW 6.9 mph - N/A   Clear
5:35 AM 19.4 °F 9.5 °F 15.8 °F 86% 30.03 in 10.0 mi South 8.1 mph - N/A   Clear
6:15 AM 17.6 °F 8.2 °F 14.0 °F 86% 30.03 in 10.0 mi SSW 6.9 mph - N/A   Clear
6:35 AM 17.6 °F 10.7 °F 14.0 °F 86% 30.01 in 10.0 mi SSW 4.6 mph - N/A   Clear
6:55 AM 17.6 °F 8.2 °F 14.0 °F 86% 30.01 in 10.0 mi South 6.9 mph - N/A   Clear
7:15 AM 19.4 °F 8.6 °F 14.0 °F 80% 30.01 in 10.0 mi South 9.2 mph 15.0 mph N/A   Clear
7:35 AM 17.6 °F 7.3 °F 14.0 °F 86% 30.02 in 10.0 mi SSW 8.1 mph - N/A   Clear
8:15 AM 17.6 °F 8.2 °F 14.0 °F 86% 30.02 in 7.0 mi SSW 6.9 mph 13.8 mph N/A   Clear
8:35 AM 17.6 °F 8.2 °F 14.0 °F 86% 30.03 in 8.0 mi SSW 6.9 mph 15.0 mph N/A   Clear
9:15 AM 19.4 °F 7.9 °F 15.8 °F 86% 30.02 in 9.0 mi SSW 10.4 mph - N/A   Clear
9:35 AM 21.2 °F 10.1 °F 17.6 °F 86% 30.02 in 9.0 mi SSW 10.4 mph - N/A   Clear
9:55 AM 23.0 °F 12.4 °F 17.6 °F 80% 30.03 in 8.0 mi WSW 10.4 mph 18.4 mph N/A   Clear
10:15 AM 24.8 °F 11.1 °F 21.2 °F 86% 30.02 in 6.0 mi SW 18.4 mph - N/A   Clear
10:35 AM 24.8 °F 12.9 °F 21.2 °F 86% 30.00 in 7.0 mi SW 13.8 mph 21.9 mph N/A   Partly Cloudy
10:55 AM 26.6 °F 13.1 °F 23.0 °F 86% 30.00 in 8.0 mi SW 19.6 mph - N/A   Clear
11:15 AM 28.4 °F 17.0 °F 21.2 °F 74% 29.99 in 10.0 mi WSW 15.0 mph - N/A   Clear
11:35 AM 26.6 °F 14.7 °F 21.2 °F 80% 29.98 in 9.0 mi WSW 15.0 mph - N/A   Clear
11:55 AM 26.6 °F 15.2 °F 21.2 °F 80% 29.96 in 10.0 mi SW 13.8 mph 19.6 mph N/A   Clear
12:15 PM 28.4 °F 19.1 °F 21.2 °F 74% 29.95 in 10.0 mi SW 10.4 mph 20.7 mph N/A   Clear
12:35 PM 28.4 °F 18.5 °F 21.2 °F 74% 29.96 in 10.0 mi West 11.5 mph - N/A   Clear
12:55 PM 26.6 °F 13.8 °F 19.4 °F 74% 29.97 in 10.0 mi West 17.3 mph - N/A   Clear
1:15 PM 26.6 °F 15.7 °F 17.6 °F 69% 29.96 in 10.0 mi West 12.7 mph - N/A   Clear
1:35 PM 26.6 °F 17.5 °F 17.6 °F 69% 29.94 in 10.0 mi WSW 9.2 mph - N/A   Clear
1:55 PM 24.8 °F 12.9 °F 17.6 °F 74% 29.94 in 10.0 mi WSW 13.8 mph - N/A   Clear
2:15 PM 24.8 °F 13.4 °F 17.6 °F 74% 29.94 in 10.0 mi WSW 12.7 mph - N/A   Clear
2:35 PM 26.6 °F 16.2 °F 17.6 °F 69% 29.95 in 10.0 mi WSW 11.5 mph - N/A   Clear
2:55 PM 26.6 °F 17.5 °F 17.6 °F 69% 29.95 in 10.0 mi West 9.2 mph - N/A   Clear
3:15 PM 26.6 °F 16.8 °F 17.6 °F 69% 29.96 in 10.0 mi West 10.4 mph - N/A   Clear
3:35 PM 26.6 °F 18.2 °F 17.6 °F 69% 29.97 in 10.0 mi WSW 8.1 mph 15.0 mph N/A   Clear
3:55 PM 24.8 °F 15.3 °F 17.6 °F 74% 29.98 in 10.0 mi West 9.2 mph - N/A   Clear
4:15 PM 26.6 °F 18.2 °F 17.6 °F 69% 29.99 in 10.0 mi West 8.1 mph - N/A   Clear
4:35 PM 26.6 °F 16.2 °F 17.6 °F 69% 30.00 in 10.0 mi West 11.5 mph - N/A   Clear
5:15 PM 24.8 °F 17.9 °F 15.8 °F 69% 29.99 in 10.0 mi WSW 5.8 mph - N/A   Clear
5:35 PM 23.0 °F 18.4 °F 15.8 °F 74% 30.00 in 10.0 mi WSW 3.5 mph - N/A   Clear
5:55 PM 23.0 °F 18.4 °F 15.8 °F 74% 30.01 in 10.0 mi WSW 3.5 mph - N/A   Mostly Cloudy
6:15 PM 24.8 °F 20.5 °F 17.6 °F 74% 30.02 in 10.0 mi West 3.5 mph - N/A   Overcast
6:35 PM 24.8 °F 14.6 °F 19.4 °F 80% 30.02 in 10.0 mi West 10.4 mph - N/A   Overcast
6:55 PM 28.4 °F 15.4 °F 21.2 °F 74% 30.03 in 10.0 mi NW 19.6 mph 26.5 mph N/A   Overcast
7:15 PM 26.6 °F 14.7 °F 21.2 °F 80% 30.05 in 10.0 mi WNW 15.0 mph 25.3 mph N/A   Overcast
7:35 PM 26.6 °F 13.1 °F 21.2 °F 80% 30.06 in 6.0 mi NW 19.6 mph 31.1 mph N/A   Overcast
7:55 PM 24.8 °F 11.9 °F 19.4 °F 80% 30.06 in 9.0 mi NW 16.1 mph 25.3 mph N/A   Overcast
8:15 PM 24.8 °F 12.9 °F 19.4 °F 80% 30.07 in 6.0 mi NW 13.8 mph - N/A   Overcast
8:55 PM 23.0 °F 8.0 °F 17.6 °F 80% 30.09 in 7.0 mi NW 20.7 mph 27.6 mph N/A   Overcast
9:15 PM 23.0 °F 9.6 °F 17.6 °F 80% 30.09 in 8.0 mi NW 16.1 mph 26.5 mph N/A   Overcast
9:35 PM 21.2 °F 6.4 °F 15.8 °F 80% 30.09 in 10.0 mi NW 18.4 mph 24.2 mph N/A   Overcast
9:55 PM 21.2 °F 6.8 °F 17.6 °F 86% 30.11 in 10.0 mi NW 17.3 mph - N/A   Overcast
10:15 PM 19.4 °F 2.8 °F 14.0 °F 80% 30.12 in 10.0 mi NW 21.9 mph 29.9 mph N/A   Overcast
10:35 PM 19.4 °F 5.5 °F 14.0 °F 80% 30.12 in 10.0 mi WNW 15.0 mph 23.0 mph N/A   Overcast
11:15 PM 17.6 °F 1.7 °F 12.2 °F 79% 30.15 in 10.0 mi NW 18.4 mph 25.3 mph N/A   Overcast
11:35 PM 15.8 °F -2.3 °F 10.4 °F 79% 30.16 in 5.0 mi NW 23.0 mph 31.1 mph N/A Snow Light Snow
11:55 PM 15.8 °F 2.7 °F 10.4 °F 79% 30.17 in 8.0 mi NW 11.5 mph 18.4 mph N/A Snow Light Snow